Regional Weather Roundup
Issued by NWS

Home | Current Version | Previous Version | Text Only | Print | Product List | Glossary On
Versions: 1 2 3 4 5 6 7 8 9 10 11 12 13 14 15 16 17 18 19 20 21 22 23 24 25 26 27 28 29 30 31 32 33 34 35 36 37 38 39 40 41 42 43 44 45 46 47 48 49 50
000
ASUS43 KDTX 250510
RWRMI
MICHIGAN HOURLY REGIONAL WEATHER ROUNDUP
NATIONAL WEATHER SERVICE DETROIT/PONTIAC MI
100 AM EDT FRI APR 25 2014

NOTE: "FAIR" INDICATES FEW OR NO CLOUDS BELOW 12,000 FEET WITH NO
SIGNIFICANT WEATHER AND/OR OBSTRUCTION TO VISIBILITY.

MIZ047>049-052>055-059>063-066>070-074>076-081>083-250600-
SOUTHEAST LOWER MICHIGAN

CITY           SKY/WX    TMP DP  RH WIND       PRES   REMARKS
ADRIAN         CLOUDY    45  29  53 E9        29.83F
ALMA           CLOUDY    47  22  38 E8        29.84F
ANN ARBOR      MOCLDY    44  19  36 E6        29.85F
BAD AXE        CLOUDY    42  28  57 E3        29.90F
DETROIT CITY   MOCLDY    47  23  38 E15G22    29.87F
DETROIT        CLOUDY    46  21  37 E9        29.87F
FLINT          CLOUDY    46  24  42 E6        29.88R
GROSSE ILE     MOCLDY    45  19  36 E8        29.84F
HILLSDALE      CLOUDY    45  26  46 E12       29.79F
HOWELL         MOCLDY    46  15  29 SE13      29.85F

CITY           SKY/WX    TMP DP  RH WIND       PRES   REMARKS
JACKSON        MOCLDY    44  25  47 E13       29.81F
LAMBERTVILLE   MOCLDY    46  32  57 E3        29.82F
LANSING        CLOUDY    47  20  34 E12       29.82F
LAPEER         NOT AVBL
MASON          MOCLDY    45  23  41 E7        29.82F
MONROE         MOCLDY    46  30  53 E13       29.83F
MT. CLEMENS    CLOUDY    44  27  50 E14       29.86F
PONTIAC        MOCLDY    46  21  37 SE12      29.86R
PORT HOPE        N/A     42  32  67 E20       29.89F
PORT HURON     MOCLDY    43  23  45 E8        29.89F
TRI CITIES     CLOUDY    45  27  49 E7        29.89S
YPSILANTI      MOCLDY    45  21  38 E6        29.87S
$$
MIZ043>046-050>051-056>058-064>065-071>073-077>080-250600-
SOUTHWEST LOWER MICHIGAN

CITY           SKY/WX    TMP DP  RH WIND       PRES   REMARKS
BATTLE CREEK   CLOUDY    46  24  42 E12       29.78F
BENTON HARBOR  LGT RAIN  47  36  65 SE12      29.74F
BIG RAPIDS     CLOUDY    48  20  33 SE12G22   29.80F
COLDWATER      CLOUDY    45  24  44 E8        29.78F
HOLLAND        LGT RAIN  49  31  49 SE12      29.77F
GRAND RAPIDS   CLOUDY    48  22  35 E15       29.79F
KALAMAZOO      CLOUDY    47  26  44 E9        29.78F
MARSHALL       CLOUDY    44  25  47 E7        29.78F
MUSKEGON       LGT RAIN  47  29  49 E14       29.76F
$$
MIZ016>042-250600-
NORTHERN LOWER MICHIGAN

CITY           SKY/WX    TMP DP  RH WIND       PRES   REMARKS
ALPENA         CLOUDY    39  24  55 SE9       29.94S
BEAVER ISLAND  CLOUDY    39  27  62 E13       29.89F
BELLAIRE       CLOUDY    45  15  29 E8        29.88S
CADILLAC       CLOUDY    42  25  51 E13       29.83S
CHARLEVOIX     CLOUDY    44  17  33 E8        29.91F
FRANKFORT      DRIZZLE   45  29  52 E7        29.81F
GAYLORD        CLOUDY    40  16  37 E8        29.88R
GRAYLING       CLOUDY    40  15  35 E10       29.89F
HARBOR SPRINGS CLOUDY    44  17  34 E9        29.89S
HOUGHTON LAKE  CLOUDY    40  20  44 SE8       29.89R
MANISTEE       CLOUDY    43  34  70 E9        29.80F
OSCODA         CLOUDY    42  23  47 E9        29.92S
PELLSTON       CLOUDY    43  15  32 E10       29.92R
TRAVERSE CITY  CLOUDY    46  18  32 E7        29.84F
$$
MIZ007>008-015-250600-
EASTERN UPPER MICHIGAN

CITY           SKY/WX    TMP DP  RH WIND       PRES   REMARKS
KINROSS        CLOUDY    39  30  70 E10       29.94S
MACKINAC ISLAN CLOUDY    36  28  72 E12G17    29.93S
NEWBERRY       CLOUDY    32  32  99 E12       29.93F
S. S. MARIE    CLOUDY    40  25  55 E8G17     29.96F
$$
MIZ004>006-011>014-085-250600-
CENTRAL UPPER MICHIGAN

CITY           SKY/WX    TMP DP  RH WIND       PRES   REMARKS
MANISTIQUE     LGT RAIN  38  31  76 E14G23    29.88S
ESCANABA       CLOUDY    37  28  70 E18G28    29.80F
MENOMINEE      CLOUDY    37  32  81 E13       29.75F
SAWYER-GWINN   CLOUDY    35  32  90 E15       29.79F
$$
MIZ001>003-009>011-084-250600-
WESTERN UPPER MICHIGAN

CITY           SKY/WX    TMP DP  RH WIND       PRES   REMARKS
IRON MOUNTAIN  CLOUDY    36  34  92 SE8       29.75F
HOUGHTON       SNOW      32  30  92 E18G29    29.79F VSB 1/4
COPPER HARBOR    N/A     35  32  88 S13G22    29.84F
IRONWOOD       CLOUDY    36  32  87 SE10      29.64F
$$

ABBREVIATIONS USED IN REMARKS
   TC - TEMPERATURE IN CELSIUS
  WCI - WIND CHILL INDEX
   HX - HEAT INDEX
  VSB - VISIBILITY




USA.gov is the U.S. government's official web portal to all federal, state and local government web resources and services.